DW6179 Weather Reports


time (UTC)temp
C
wind
direction
speed
KPH
gust
KPH
rain 1hr
cm
rain 24hr
cm
rain mn
cm
humidity
%
barometer
mb
20190423101606 11 128 4.8 20.9 0.00 0.00 0.00 73 1013.3
20190423100025 12 93 8.0 17.7 0.00 0.00 0.00 68 1013.2
20190423094529 12 131 4.8 16.1 0.00 0.00 0.00 63 1013.1
20190423093031 12 92 6.4 22.5 0.00 0.00 0.00 63 1013.1
20190423091524 12 129 1.6 19.3 0.00 0.00 0.00 65 1013.2
20190423090014 12 102 6.4 27.4 0.00 0.00 0.00 66 1012.9
20190423084519 12 98 4.8 19.3 0.00 0.00 0.00 65 1013.0
20190423083044 12 122 9.7 24.1 0.00 0.00 0.00 65 1013.0
20190423081554 12 108 6.4 19.3 0.00 0.00 0.00 67 1013.0
20190423080013 12 158 4.8 19.3 0.00 0.00 0.00 67 1013.0
20190423074546 12 90 6.4 17.7 0.00 0.00 0.00 67 1012.8
20190423073029 12 141 8.0 30.6 0.00 0.00 0.00 69 1012.8
20190423071506 11 113 9.7 27.4 0.00 0.00 0.00 72 1012.8
20190423070009 11 108 4.8 24.1 0.00 0.00 0.00 74 1012.8
20190423064504 11 129 6.4 17.7 0.00 0.00 0.00 74 1012.7
20190423063005 11 98 6.4 20.9 0.00 0.00 0.00 74 1012.7
20190423061501 11 218 4.8 16.1 0.00 0.00 0.00 75 1012.4
20190423060210 11 166 8.0 25.7 0.00 0.00 0.00 74 1012.4
20190423060002 11 88 8.0 25.7 0.00 0.00 0.00 74 1012.3
20190423054842 10 120 8.0 24.1 0.00 0.00 0.00 75 1012.2
20190423053141 10 88 8.0 22.5 0.00 0.00 0.00 76 1012.0
20190423051720 10 80 9.7 27.4 0.00 0.00 0.00 76 1011.9
20190423050134 10 105 6.4 19.3 0.00 0.00 0.00 76 1011.9
20190423044721 10 116 6.4 25.7 0.00 0.00 0.00 76 1011.8
20190423043342 10 80 4.8 22.5 0.00 0.00 0.00 77 1011.8
20190423041658 10 122 6.4 25.7 0.00 0.00 0.00 77 1011.7
20190423040154 10 128 6.4 19.3 0.00 0.00 0.00 77 1011.6
20190423034644 10 105 6.4 24.1 0.00 0.00 0.00 77 1011.7
20190423033145 10 77 4.8 19.3 0.00 0.00 0.00 77 1011.7
20190423031628 10 78 6.4 20.9 0.00 0.00 0.00 76 1011.7
20190423030137 10 215 3.2 17.7 0.00 0.00 0.00 76 1011.7
20190423024611 10 108 6.4 19.3 0.00 0.00 0.00 77 1011.6
20190423023125 10 108 3.2 20.9 0.00 0.00 0.00 77 1011.9
20190423021618 10 105 8.0 22.5 0.00 0.00 0.00 76 1012.1
20190423020105 11 123 4.8 17.7 0.00 0.00 0.00 76 1012.1
20190423014542 11 103 6.4 17.7 0.00 0.00 0.00 76 1012.2
20190423013100 11 87 1.6 17.7 0.00 0.00 0.00 76 1012.5
20190423011540 11 115 4.8 19.3 0.00 0.00 0.00 75 1012.5
20190423010056 11 109 4.8 19.3 0.00 0.00 0.00 75 1012.7
20190423004604 11 89 3.2 16.1 0.00 0.00 0.00 75 1012.9
20190423003043 11 115 1.6 11.3 0.00 0.00 0.00 74 1012.9
20190423001532 11 113 0.0 6.4 0.00 0.00 0.00 73 1013.2
20190423000058 11 91 1.6 12.9 0.00 0.00 0.00 74 1013.3
20190422234601 11 96 1.6 8.0 0.00 0.00 0.00 73 1013.4
20190422233025 11 113 1.6 6.4 0.00 0.00 0.00 72 1013.6
20190422231538 11 89 1.6 9.7 0.00 0.00 0.00 71 1013.7
20190422230048 11 120 1.6 11.3 0.00 0.00 0.00 70 1013.7
20190422224538 11 250 1.6 8.0 0.00 0.00 0.00 69 1014.0
20190422223034 12 108 0.0 4.8 0.00 0.00 0.00 69 1014.0
20190422221513 12 125 0.0 3.2 0.00 0.00 0.00 70 1014.0
20190422220007 12 97 0.0 6.4 0.00 0.00 0.00 69 1013.9
20190422214518 12 98 1.6 8.0 0.00 0.00 0.00 69 1013.8
20190422213025 12 115 1.6 9.7 0.00 0.00 0.00 70 1013.9
20190422211503 12 125 0.0 14.5 0.00 0.00 0.00 71 1013.9
20190422210005 12 133 0.0 8.0 0.00 0.00 0.00 74 1014.0
20190422204504 12 97 0.0 8.0 0.00 0.00 0.00 73 1013.9
20190422203003 12 113 0.0 6.4 0.00 0.00 0.00 71 1013.9
20190422201501 13 127 0.0 9.7 0.00 0.00 0.00 66 1013.9
20190422200233 13 97 1.6 6.4 0.00 0.00 0.00 61 1013.9
20190422194727 13 175 1.6 8.0 0.00 0.00 0.00 58 1014.0
20190422193213 14 111 0.0 4.8 0.00 0.00 0.00 60 1013.9
20190422191647 14 84 0.0 4.8 0.00 0.00 0.00 57 1013.7
20190422190320 15 101 0.0 4.8 0.00 0.00 0.00 56 1013.7
20190422184623 15 143 0.0 9.7 0.00 0.00 0.00 56 1013.5
20190422183209 15 141 1.6 9.7 0.00 0.00 0.00 55 1013.5
20190422181635 15 134 0.0 9.7 0.00 0.00 0.00 54 1013.3
20190422180138 15 125 0.0 8.0 0.00 0.00 0.00 54 1013.0
20190422174700 16 129 1.6 11.3 0.00 0.00 0.00 52 1012.9
20190422173123 16 81 1.6 8.0 0.00 0.00 0.00 49 1012.9
20190422171702 17 104 1.6 11.3 0.00 0.00 0.00 48 1012.9
20190422170152 17 103 6.4 16.1 0.00 0.00 0.00 47 1012.8
20190422164619 18 105 4.8 17.7 0.00 0.00 0.00 44 1012.8
20190422161635 20 141 1.6 9.7 0.00 0.00 0.00 40 1012.7
20190422160207 20 124 1.6 8.0 0.00 0.00 0.00 38 1012.6
20190422154741 21 143 1.6 8.0 0.00 0.00 0.00 35 1012.4
20190422153259 21 139 1.6 16.1 0.00 0.00 0.00 34 1012.3
20190422151631 21 91 3.2 14.5 0.00 0.00 0.00 35 1012.1
20190422150158 22 122 1.6 6.4 0.00 0.00 0.00 34 1012.2
20190422144622 22 111 1.6 6.4 0.00 0.00 0.00 33 1012.3
20190422143155 21 95 1.6 11.3 0.00 0.00 0.00 35 1012.2
20190422141626 21 96 0.0 8.0 0.00 0.00 0.00 39 1012.2
20190422140125 20 111 0.0 8.0 0.00 0.00 0.00 38 1012.2
20190422134629 20 127 1.6 9.7 0.00 0.00 0.00 37 1012.2
20190422133141 21 124 1.6 14.5 0.00 0.00 0.00 36 1012.1
20190422131644 22 82 3.2 14.5 0.00 0.00 0.00 35 1012.1
20190422130125 23 128 1.6 6.4 0.00 0.00 0.00 30 1012.0
20190422124617 22 129 0.0 11.3 0.00 0.00 0.00 30 1012.1
20190422123132 23 98 0.0 4.8 0.00 0.00 0.00 31 1012.1
20190422121558 23 123 0.0 4.8 0.00 0.00 0.00 32 1012.3
20190422120153 22 131 0.0 3.2 0.00 0.00 0.00 33 1012.3
20190422114611 22 117 0.0 6.4 0.00 0.00 0.00 32 1012.4
20190422113047 23 103 0.0 3.2 0.00 0.00 0.00 29 1012.5
20190422111618 23 110 0.0 4.8 0.00 0.00 0.00 33 1012.6
20190422110106 23 117 0.0 6.4 0.00 0.00 0.00 33 1012.8
20190422104554 22 144 0.0 6.4 0.00 0.00 0.00 33 1013.0
20190422103040 22 143 0.0 4.8 0.00 0.00 0.00 32 1013.3